Weather History for Jacksonville, IL

Change the Weather History Date:

Sunday, November 3, 2013

  Actual Average (KSPI) Record (KSPI)
Temperature  
Mean Temperature 42 °F 49 °F  
Max Temperature 56 °F 59 °F 79 °F (1964)
Min Temperature 28 °F 39 °F 13 °F (1951)
Degree Days  
Heating Degree Days 23 16  
Month to date heating degree days 47  
Since 1 July heating degree days 457  
Cooling Degree Days 0 0  
Month to date cooling degree days 0  
Year to date cooling degree days 1121  
Moisture  
Dew Point 32 °F    
Average Humidity 68    
Maximum Humidity 96    
Minimum Humidity 39    
Precipitation  
Precipitation 0.00 in 0.10 in 1.34 in (2011)
Month to date precipitation 0.31  
Year to date precipitation 32.01  
Snow  
Snow 0.00 in 0.00 in 1.10 in (1967)
Month to date snowfall 0.0  
Since 1 July snowfall T  
Since 1 September snowfall T  
Snow Depth -    
Sea Level Pressure  
Sea Level Pressure 30.22 in    
Wind  
Wind Speed 2 mph (SE)    
Max Wind Speed 13 mph    
Max Gust Speed 21 mph    
Visibility 10 miles    
Events      
T = Trace of Precipitation, MM = Missing Value Source: NWS Daily Summary

Daily Weather History Graph

Daily Weather History Graph

Search for Another Location

Airport:

Trip Planner

Search our weather history database for the weather conditions in past years. The results will help you decide how hot, cold, wet, or windy it might be!

Date:

Astronomy

Nov. 03, 2013 Rise Set
Actual Time 6:32 AM CST 4:56 PM CST
Civil Twilight 6:04 AM CST 5:24 PM CST
Nautical Twilight 5:32 AM CST 5:56 PM CST
Astronomical Twilight 5:00 AM CST 6:27 PM CST
Moon 6:36 AM CST (11/3) 5:11 PM CST (11/3)
Length of Visible Light 11h 20m
Length of Day
10h 24m
New Moon, 0% of the Moon is Illuminated
Nov 3
New Moon
Nov 9
First Quarter
Nov 17
Full
Nov 25
Last Quarter
Dec 2
New

Hourly Weather History & Observations

Time (CST) Temp. Windchill Dew Point Humidity Pressure Visibility Wind Dir Wind Speed Gust Speed Precip Events Conditions
12:15 AM 35.6 °F - 31.1 °F 84% 30.18 in 10.0 mi Calm Calm - N/A   Clear
12:35 AM 36.0 °F - 31.1 °F 82% 30.18 in 10.0 mi Calm Calm - N/A   Clear
12:55 AM 33.8 °F - 30.4 °F 87% 30.19 in 10.0 mi Calm Calm - N/A   Clear
1:15 AM 33.8 °F - 30.4 °F 87% 30.20 in 10.0 mi Calm Calm - N/A   Clear
1:35 AM 34.3 °F - 30.9 °F 87% 30.20 in 10.0 mi Calm Calm - N/A   Clear
1:55 AM 32.9 °F - 30.2 °F 90% 30.21 in 10.0 mi Calm Calm - N/A   Clear
1:15 AM 33.1 °F - 31.5 °F 94% 30.21 in 10.0 mi Calm Calm - N/A   Clear
1:35 AM 32.9 °F - 31.1 °F 93% 30.22 in 10.0 mi Calm Calm - N/A   Clear
1:55 AM 33.1 °F - 31.6 °F 94% 30.22 in 10.0 mi Calm Calm - N/A   Clear
2:15 AM 32.7 °F - 31.1 °F 94% 30.23 in 10.0 mi Calm Calm - N/A   Clear
2:35 AM 32.0 °F - 30.2 °F 93% 30.23 in 10.0 mi Calm Calm - N/A   Clear
2:55 AM 32.0 °F - 31.1 °F 96% 30.23 in 10.0 mi Calm Calm - N/A   Clear
3:15 AM 32.4 °F - 31.1 °F 95% 30.23 in 10.0 mi Calm Calm - N/A   Clear
3:35 AM 31.3 °F - 29.5 °F 93% 30.23 in 7.0 mi Calm Calm - N/A   Clear
3:55 AM 31.5 °F - 30.2 °F 95% 30.23 in 10.0 mi Calm Calm - N/A   Clear
4:15 AM 30.4 °F - 29.1 °F 95% 30.24 in 10.0 mi Calm Calm - N/A   Clear
4:35 AM 30.7 °F - 29.3 °F 94% 30.24 in 10.0 mi Calm Calm - N/A   Clear
4:55 AM 29.7 °F - 28.4 °F 95% 30.24 in 10.0 mi Calm Calm - N/A   Clear
5:15 AM 29.8 °F - 28.6 °F 95% 30.25 in 10.0 mi Calm Calm - N/A   Clear
5:35 AM 30.2 °F - 29.3 °F 96% 30.25 in 10.0 mi Calm Calm - N/A   Clear
5:55 AM 30.7 °F - 29.7 °F 96% 30.25 in 10.0 mi Calm Calm - N/A   Clear
6:15 AM 29.3 °F - 28.0 °F 95% 30.26 in 10.0 mi Calm Calm - N/A   Clear
6:35 AM 29.3 °F - 28.0 °F 95% 30.26 in 10.0 mi Calm Calm - N/A   Clear
6:55 AM 28.9 °F - 27.5 °F 94% 30.27 in 10.0 mi Calm Calm - N/A   Clear
7:15 AM 30.7 °F - 29.3 °F 94% 30.28 in 10.0 mi Calm Calm - N/A   Clear
7:35 AM 32.4 °F - 31.3 °F 96% 30.28 in 10.0 mi Calm Calm - N/A   Clear
7:55 AM 35.2 °F - 33.1 °F 92% 30.29 in 10.0 mi Calm Calm - N/A   Clear
8:15 AM 39.0 °F - 34.2 °F 83% 30.30 in 10.0 mi Calm Calm - N/A   Clear
8:35 AM 41.2 °F - 34.7 °F 78% 30.30 in 10.0 mi Calm Calm - N/A   Clear
8:55 AM 43.9 °F - 36.1 °F 74% 30.30 in 10.0 mi Calm Calm - N/A   Clear
9:15 AM 45.7 °F - 35.8 °F 68% 30.30 in 10.0 mi Calm Calm - N/A   Clear
9:35 AM 48.2 °F - 35.8 °F 62% 30.30 in 10.0 mi Calm Calm - N/A   Clear
9:55 AM 50.0 °F - 36.3 °F 59% 30.30 in 10.0 mi Calm Calm - N/A   Clear
10:15 AM 51.3 °F - 34.3 °F 52% 30.30 in 10.0 mi SSE 3.5 mph - N/A   Clear
10:35 AM 52.3 °F - 33.3 °F 48% 30.29 in 10.0 mi Calm Calm - N/A   Clear
10:55 AM 53.1 °F - 32.4 °F 45% 30.28 in 10.0 mi SE 11.5 mph - N/A   Clear
11:15 AM 53.6 °F - 32.9 °F 45% 30.28 in 10.0 mi SE 3.5 mph - N/A   Clear
11:35 AM 54.1 °F - 33.1 °F 45% 30.26 in 10.0 mi SE 4.6 mph - N/A   Clear
11:55 AM 54.9 °F - 33.3 °F 44% 30.25 in 10.0 mi Calm Calm - N/A   Clear
12:15 PM 55.0 °F - 32.4 °F 42% 30.24 in 10.0 mi Calm Calm - N/A   Clear
12:35 PM 55.6 °F - 32.5 °F 42% 30.23 in 10.0 mi South 6.9 mph - N/A   Clear
12:55 PM 55.8 °F - 32.5 °F 41% 30.22 in 10.0 mi SE 9.2 mph - N/A   Clear
1:15 PM 56.1 °F - 32.5 °F 41% 30.21 in 10.0 mi SE 12.7 mph 19.6 mph N/A   Clear
1:35 PM 55.9 °F - 32.2 °F 41% 30.20 in 10.0 mi SE 8.1 mph 17.3 mph N/A   Clear
1:55 PM 56.5 °F - 32.2 °F 40% 30.20 in 10.0 mi SSE 12.7 mph 17.3 mph N/A   Clear
2:15 PM 56.5 °F - 31.8 °F 39% 30.19 in 10.0 mi SSE 10.4 mph 18.4 mph N/A   Clear
2:35 PM 56.3 °F - 32.2 °F 40% 30.19 in 10.0 mi Calm Calm - N/A   Clear
2:55 PM 55.9 °F - 32.4 °F 41% 30.19 in 10.0 mi SE 12.7 mph - N/A   Clear
3:15 PM 55.8 °F - 32.0 °F 41% 30.18 in 10.0 mi SSE 11.5 mph 18.4 mph N/A   Clear
3:35 PM 55.8 °F - 32.2 °F 41% 30.18 in 10.0 mi SSE 5.8 mph 20.7 mph N/A   Clear
3:55 PM 54.0 °F - 32.2 °F 44% 30.17 in 10.0 mi SE 11.5 mph - N/A   Clear
4:15 PM 53.4 °F - 32.5 °F 45% 30.17 in 10.0 mi SE 8.1 mph - N/A   Clear
4:35 PM 52.7 °F - 32.5 °F 46% 30.16 in 10.0 mi SE 10.4 mph - N/A   Clear
4:55 PM 50.9 °F - 32.5 °F 49% 30.17 in 10.0 mi SE 3.5 mph - N/A   Clear
5:15 PM 49.8 °F - 32.7 °F 52% 30.18 in 10.0 mi Calm Calm - N/A   Clear
5:35 PM 48.6 °F - 32.4 °F 54% 30.18 in 10.0 mi Calm Calm - N/A   Clear
5:55 PM 47.7 °F - 32.7 °F 56% 30.18 in 10.0 mi Calm Calm - N/A   Clear
6:15 PM 47.5 °F - 33.4 °F 58% 30.18 in 10.0 mi Calm Calm - N/A   Clear
6:35 PM 46.2 °F 41.2 °F 33.4 °F 61% 30.17 in 10.0 mi ESE 10.4 mph - N/A   Clear
6:55 PM 47.3 °F - 33.1 °F 58% 30.17 in 10.0 mi Calm Calm - N/A   Clear
7:15 PM 47.5 °F - 33.1 °F 57% 30.16 in 10.0 mi SE 10.4 mph - N/A   Clear
7:35 PM 47.5 °F - 33.1 °F 57% 30.16 in 10.0 mi SE 11.5 mph - N/A   Clear
7:55 PM 47.5 °F - 32.9 °F 57% 30.16 in 10.0 mi SE 9.2 mph - N/A   Clear
8:15 PM 47.8 °F - 33.4 °F 57% 30.17 in 10.0 mi SE 10.4 mph - N/A   Clear
8:35 PM 47.3 °F - 33.6 °F 59% 30.16 in 10.0 mi SE 9.2 mph - N/A   Clear
8:55 PM 46.8 °F - 33.6 °F 60% 30.17 in 10.0 mi SE 10.4 mph - N/A   Clear
9:15 PM 46.4 °F 41.5 °F 34.2 °F 62% 30.18 in 10.0 mi SE 10.4 mph - N/A   Clear
9:35 PM 46.4 °F 41.1 °F 34.2 °F 62% 30.17 in 10.0 mi SE 11.5 mph - N/A   Clear
9:55 PM 45.9 °F 40.4 °F 34.2 °F 64% 30.18 in 10.0 mi SE 11.5 mph - N/A   Clear
10:15 PM 45.9 °F 40.0 °F 34.7 °F 65% 30.16 in 10.0 mi SE 12.7 mph - N/A   Clear
10:35 PM 45.9 °F 40.8 °F 34.7 °F 65% 30.16 in 10.0 mi SE 10.4 mph 18.4 mph N/A   Clear
10:55 PM 45.9 °F 41.7 °F 34.9 °F 66% 30.18 in 10.0 mi SE 8.1 mph - N/A   Clear